Wind_Speed
30 32 31 26 21 15 10 5 5 8 11 13 14 17 21 21 22 25 28 29 30 29 27 32 34 35 38 41 44 40 42 45 43 40 36 35 33 29 25 24 24 25 25
20 27 24 20 16 14 10 6 2 4 9 13 15 16 18 21 22 23 25 29 33 34 34 34 34 36 37 41 44 43 45 42 42 43 36 27 32 30 29 29 28 26 24
22 21 21 20 14 12 10 8 7 7 8 11 16 17 18 19 21 22 24 25 29 35 38 40 38 36 34 38 42 45 42 46 43 38 22 22 11 22 31 33 31 31 30
20 28 23 20 17 15 12 10 7 8 10 12 15 18 20 23 24 25 26 26 25 29 35 42 44 41 36 37 40 43 42 41 45 38 30 19 7 8 10 31 36 36 35
22 24 25 20 17 15 15 13 11 11 13 13 15 19 20 22 24 26 28 27 27 26 27 33 41 46 43 37 38 44 45 42 44 44 41 36 39 41 33 26 30 42 42
27 25 23 18 17 15 14 16 16 17 16 17 17 18 21 22 23 25 27 28 28 27 25 24 29 36 42 39 40 44 46 46 45 47 48 39 46 48 45 38 34 33 35
28 28 24 22 20 20 20 20 19 16 19 20 20 19 20 22 24 25 28 30 30 29 25 24 24 28 34 39 37 40 46 47 46 44 47 46 51 47 42 38 30 29 32
29 27 25 22 22 23 21 20 19 19 20 20 21 21 21 22 23 23 25 27 30 30 28 29 30 30 28 36 40 32 41 47 42 40 34 43 55 59 49 47 40 27 31
20 25 23 22 23 22 20 20 20 20 21 22 22 23 23 24 24 23 23 24 27 31 32 31 33 32 29 29 38 34 36 40 41 40 43 51 60 53 46 43 45 43 24
22 20 20 22 21 17 17 20 22 23 22 23 23 24 23 23 24 25 24 24 24 27 29 30 32 32 29 28 32 36 35 42 45 45 47 49 51 50 43 42 41 40 37
15 18 17 16 17 18 20 22 21 22 23 24 23 23 24 23 22 23 25 25 24 26 26 27 29 28 28 28 30 34 35 33 36 45 45 49 51 50 48 44 39 37 38
15 18 19 20 20 20 20 21 20 21 22 23 22 22 22 23 24 23 24 25 24 24 24 25 26 26 23 26 30 29 29 35 35 42 43 47 54 53 49 50 38 33 37
15 16 18 20 19 18 18 18 19 20 20 19 22 22 23 24 24 24 23 23 24 23 21 22 22 23 22 18 22 24 30 32 38 40 47 45 41 47 47 39 32 36 39
12 11 13 13 13 15 16 17 18 20 19 20 23 25 26 26 26 26 25 24 23 21 19 18 18 17 19 19 19 23 25 33 37 43 42 43 41 50 38 40 37 38 49
11 12 14 14 14 17 17 19 20 19 20 22 25 27 27 27 27 27 28 26 24 24 22 18 16 16 17 16 17 20 26 32 46 28 37 33 33 27 38 38 36 37 43
12 13 15 15 17 19 20 20 20 21 22 25 27 27 27 28 29 31 31 29 28 29 28 26 25 22 19 20 15 14 20 20 23 29 30 25 27 30 29 31 29 35 37
9 11 16 19 19 21 22 22 21 21 23 25 27 28 28 29 31 32 33 36 36 32 32 33 34 33 27 25 14 8 10 15 15 20 28 27 29 27 25 28 26 23 27
8 9 12 13 17 17 19 21 23 26 27 28 27 27 27 28 29 31 33 34 37 38 39 39 39 41 37 27 21 16 8 2 12 13 15 22 24 22 28 33 29 26 31
10 9 10 12 12 17 19 22 23 24 27 29 28 27 27 26 27 29 31 32 33 35 38 40 42 44 44 39 30 26 25 22 18 10 4 13 16 23 23 21 27 32 27
9 10 9 10 12 14 18 22 22 23 24 25 25 25 26 27 27 27 28 28 29 31 33 36 38 39 42 44 42 36 33 32 30 25 20 12 7 13 16 17 19 20 23
9 8 9 12 13 14 16 22 20 19 17 17 20 22 24 26 27 26 26 26 27 28 30 32 34 36 38 39 40 40 38 36 34 34 33 29 21 13 4 5 10 12 13
6 7 9 11 11 12 12 15 19 14 13 15 18 21 23 25 26 27 27 28 28 30 31 32 33 35 34 34 34 34 34 33 34 33 30 27 22 22 15 12 9 3 5
8 9 10 10 10 9 8 11 14 13 13 15 18 20 22 24 26 28 30 32 32 32 34 35 35 36 35 32 30 29 28 27 27 25 23 23 25 23 22 18 14 11 6
8 8 9 11 13 12 12 12 10 13 15 17 19 20 22 24 27 30 32 35 37 33 33 34 35 34 36 36 32 29 25 24 23 20 20 20 21 22 22 21 20 19 16
9 10 14 14 15 14 14 13 12 14 16 18 19 20 22 23 26 28 28 31 32 29 28 30 29 32 32 30 28 27 26 23 21 17 16 19 20 20 21 20 20 19 17
12 12 12 12 12 11 11 13 15 15 15 16 18 19 20 21 22 22 22 23 25 26 23 22 24 24 25 24 24 25 23 20 18 17 21 22 22 22 21 19 18 16 15
Wind_Direction
136 133 130 133 137 135 147 168 234 279 292 296 288 276 277 276 264 258 257 251 249 250 251 251 252 258 258 253 249 248 247 243 241 239 237 233 231 230 237 240 242 240 237
128 122 122 128 126 109 94 86 50 313 309 311 315 309 301 290 286 279 267 261 257 253 249 253 255 253 257 257 255 252 247 250 247 241 238 221 225 222 227 236 236 242 237
150 116 109 102 99 89 65 46 24 356 333 316 312 309 303 297 294 287 282 272 266 259 254 250 255 258 255 260 259 255 252 248 244 242 255 192 203 227 231 233 239 241 236
124 124 112 100 86 74 66 58 52 25 358 335 323 321 320 315 315 311 302 291 280 269 262 256 251 253 255 257 259 260 253 249 242 232 228 301 343 233 261 240 233 233 238
122 104 105 91 78 72 63 36 33 29 2 347 332 322 317 313 312 313 309 306 303 294 279 266 259 254 252 257 259 258 255 251 246 231 226 253 228 233 243 257 244 233 236
105 97 84 86 73 56 44 27 23 17 2 353 343 333 322 316 315 317 316 312 313 312 306 287 269 261 257 252 256 258 257 254 251 251 250 248 220 222 218 222 233 230 232
91 84 74 59 45 36 32 14 13 6 2 356 349 342 331 324 320 322 323 319 315 315 312 305 297 278 261 249 249 255 252 254 254 256 257 254 228 222 225 220 230 230 230
80 71 62 48 36 28 20 7 6 5 3 357 352 346 340 332 328 322 322 321 314 312 313 305 303 297 277 256 241 254 252 250 252 238 243 251 235 229 235 236 224 221 224
69 66 50 35 24 19 10 6 9 7 1 357 354 350 346 342 336 328 320 318 319 313 309 304 300 296 293 269 240 248 251 247 247 231 231 237 229 236 238 240 236 231 215
61 51 41 27 17 14 11 10 16 13 8 4 358 354 351 348 344 339 329 319 320 314 312 304 301 295 288 281 250 243 252 250 245 242 237 236 238 242 235 237 234 237 235
65 56 39 27 21 18 19 15 15 11 8 4 359 354 354 352 348 348 343 334 322 315 315 313 312 294 287 283 259 244 248 245 244 248 238 242 240 236 231 231 233 239 236
32 23 17 16 17 19 16 18 17 17 15 9 2 1 359 359 358 353 344 340 335 325 322 314 309 299 295 269 258 257 243 245 248 249 249 242 236 230 236 230 230 243 239
45 30 20 18 16 17 14 17 20 23 17 13 13 13 12 11 8 4 358 349 344 338 332 325 310 302 292 284 248 249 250 246 259 256 253 246 232 219 216 225 234 253 241
52 44 27 29 22 22 19 26 29 29 25 26 28 25 25 24 22 19 15 10 4 353 346 339 338 325 311 275 255 247 248 246 258 256 247 244 226 216 229 233 242 248 245
54 44 30 31 27 29 32 38 39 37 34 36 37 32 30 30 29 30 31 28 26 22 14 1 357 355 346 313 268 251 259 251 270 246 237 227 231 213 230 230 240 236 232
40 39 33 37 39 37 42 44 43 41 41 41 42 37 35 33 36 37 36 35 37 39 36 32 27 21 5 347 293 258 253 253 233 234 236 215 198 198 224 235 235 239 219
49 53 52 52 50 51 49 48 47 47 46 45 42 42 40 39 38 39 41 42 42 41 43 46 42 37 33 25 15 4 262 251 228 192 202 206 208 229 231 222 228 227 212
81 74 63 57 58 57 57 55 53 51 50 48 44 44 42 42 42 43 42 42 46 45 44 46 49 48 43 42 45 49 39 248 217 187 164 189 207 217 219 225 204 211 215
92 91 87 79 80 66 62 54 50 49 47 44 42 40 41 41 43 44 46 45 44 45 46 47 47 47 46 47 53 58 61 57 48 38 56 163 185 203 203 219 206 207 220
107 103 108 94 81 72 59 58 46 44 44 41 40 39 41 40 41 42 44 44 45 45 45 47 46 47 45 43 45 52 58 59 61 55 41 28 29 194 195 198 205 197 204
110 111 100 90 78 71 63 56 49 41 34 40 40 39 41 42 42 44 44 45 45 45 45 45 44 44 44 43 43 42 45 49 50 51 50 47 33 26 43 198 201 200 196
114 94 86 83 79 74 70 67 56 43 29 33 40 39 37 38 41 43 43 43 42 42 41 42 42 41 41 41 43 42 40 42 44 45 45 43 41 48 44 42 33 130 168
102 81 79 83 81 76 68 66 58 46 44 43 42 42 39 35 34 36 38 37 36 35 33 33 33 31 31 35 37 38 39 39 43 45 45 45 48 51 53 54 49 45 43
101 89 97 97 85 74 67 65 65 55 52 53 48 44 42 39 36 35 35 33 32 33 32 29 28 27 25 20 25 29 31 33 34 38 42 46 49 51 55 57 54 54 54
115 107 96 95 86 79 73 69 66 64 55 55 51 47 44 41 39 35 35 29 32 31 34 32 23 25 25 22 19 23 23 26 28 27 40 46 47 47 49 52 52 51 55
116 106 96 93 88 84 77 65 57 57 52 49 43 40 34 29 30 30 30 30 27 30 33 34 28 23 27 23 21 20 20 20 21 23 37 40 41 42 41 41 43 45 44
Height
1445 1440 1437 1439 1440 1443 1446 1448 1450 1451 1454 1455 1456 1458 1456 1457 1458 1459 1458 1458 1457 1458 1457 1456 1456 1459 1461 1463 1466 1467 1469 1470 1473 1476 1477 1478 1479 1483 1487 1488 1490 1491 1492
1455 1439 1438 1437 1438 1441 1444 1446 1448 1451 1453 1454 1455 1454 1454 1453 1452 1451 1452 1451 1450 1450 1451 1450 1450 1450 1452 1454 1457 1460 1464 1465 1468 1469 1470 1469 1474 1474 1477 1482 1483 1486 1487
1447 1442 1440 1437 1440 1441 1444 1446 1449 1451 1451 1451 1452 1451 1449 1449 1447 1447 1446 1445 1443 1442 1442 1443 1442 1442 1444 1444 1447 1450 1455 1458 1460 1462 1466 1435 1458 1471 1474 1474 1478 1480 1482
1448 1439 1440 1439 1441 1442 1444 1448 1449 1449 1449 1449 1448 1447 1445 1442 1442 1440 1437 1436 1436 1435 1433 1432 1434 1434 1435 1435 1438 1440 1444 1448 1449 1453 1455 1448 1445 1466 1470 1469 1470 1473 1474
1451 1444 1436 1438 1443 1446 1446 1452 1450 1444 1446 1446 1445 1445 1443 1441 1438 1434 1430 1427 1426 1426 1425 1424 1423 1424 1425 1427 1429 1430 1433 1438 1440 1442 1449 1451 1452 1457 1465 1464 1463 1465 1465
1445 1441 1441 1445 1446 1446 1446 1449 1446 1440 1443 1443 1442 1440 1440 1437 1433 1428 1423 1420 1419 1418 1417 1415 1414 1413 1415 1418 1420 1420 1423 1427 1432 1435 1439 1441 1443 1441 1445 1451 1452 1455 1456
1447 1445 1446 1448 1447 1445 1442 1447 1443 1444 1442 1439 1437 1435 1435 1433 1429 1423 1418 1415 1412 1411 1410 1408 1405 1404 1405 1406 1410 1410 1412 1415 1420 1425 1428 1432 1433 1434 1435 1444 1448 1445 1450
1450 1450 1450 1452 1448 1443 1444 1449 1447 1442 1439 1438 1435 1434 1430 1428 1424 1420 1416 1413 1409 1405 1403 1400 1399 1396 1395 1395 1400 1401 1402 1405 1410 1411 1414 1421 1423 1427 1430 1433 1438 1440 1443
1462 1452 1452 1454 1449 1444 1450 1451 1444 1439 1437 1434 1431 1429 1427 1423 1420 1416 1412 1410 1405 1399 1397 1393 1391 1389 1385 1384 1389 1393 1394 1397 1400 1400 1405 1408 1413 1419 1423 1424 1428 1432 1434
1454 1456 1455 1450 1451 1455 1450 1447 1443 1438 1437 1433 1430 1427 1423 1420 1417 1413 1409 1405 1399 1396 1391 1388 1385 1380 1377 1378 1379 1383 1385 1387 1391 1394 1396 1398 1403 1407 1410 1414 1419 1424 1426
1468 1463 1460 1460 1458 1454 1447 1447 1444 1441 1435 1431 1429 1428 1424 1420 1415 1410 1405 1400 1396 1391 1387 1383 1378 1375 1372 1371 1371 1374 1377 1379 1382 1383 1388 1389 1393 1398 1403 1407 1412 1415 1419
1464 1460 1458 1455 1455 1454 1451 1447 1445 1442 1436 1433 1433 1430 1424 1418 1412 1407 1404 1398 1392 1387 1383 1379 1376 1370 1368 1365 1365 1367 1368 1371 1373 1375 1376 1378 1382 1388 1393 1398 1404 1409 1412
1465 1464 1463 1460 1459 1458 1454 1450 1447 1442 1438 1437 1433 1429 1423 1417 1411 1406 1400 1394 1389 1385 1379 1375 1372 1366 1363 1360 1358 1359 1362 1364 1366 1366 1366 1369 1372 1376 1382 1389 1396 1401 1404
1472 1472 1470 1466 1466 1462 1456 1452 1448 1443 1441 1438 1432 1428 1423 1418 1412 1407 1399 1394 1390 1384 1378 1373 1370 1363 1358 1354 1354 1354 1355 1356 1357 1356 1358 1360 1365 1372 1377 1382 1389 1393 1396
1475 1474 1472 1468 1465 1461 1458 1452 1447 1447 1444 1439 1433 1429 1426 1421 1416 1409 1402 1397 1391 1384 1379 1376 1370 1362 1355 1349 1347 1347 1347 1345 1346 1344 1350 1354 1356 1362 1372 1378 1378 1379 1384
1475 1473 1471 1468 1466 1462 1457 1455 1453 1449 1445 1440 1434 1433 1429 1425 1420 1412 1406 1402 1393 1385 1383 1378 1369 1361 1354 1349 1345 1343 1343 1345 1337 1343 1346 1336 1352 1361 1367 1369 1369 1372 1374
1476 1474 1473 1470 1467 1464 1461 1459 1456 1453 1447 1442 1438 1436 1433 1428 1422 1417 1412 1405 1397 1394 1389 1379 1372 1363 1358 1351 1345 1341 1341 1341 1340 1333 1341 1344 1351 1357 1360 1361 1363 1363 1368
1477 1476 1474 1472 1471 1468 1466 1464 1459 1453 1448 1444 1442 1439 1436 1432 1428 1422 1416 1411 1406 1401 1395 1386 1378 1369 1362 1357 1351 1342 1339 1338 1336 1338 1333 1341 1346 1349 1352 1354 1353 1359 1364
1478 1477 1476 1476 1474 1471 1468 1464 1459 1455 1451 1449 1447 1444 1440 1437 1431 1425 1420 1417 1413 1408 1401 1394 1385 1379 1373 1366 1357 1351 1348 1346 1343 1343 1342 1336 1341 1343 1347 1350 1350 1354 1358
1479 1478 1477 1476 1473 1470 1467 1463 1461 1459 1456 1454 1451 1448 1444 1439 1434 1430 1426 1422 1417 1414 1408 1401 1395 1389 1382 1375 1367 1360 1354 1350 1349 1351 1345 1341 1341 1341 1344 1346 1348 1346 1352
1478 1478 1476 1473 1471 1469 1467 1465 1464 1462 1461 1458 1454 1452 1448 1443 1440 1436 1432 1426 1422 1419 1413 1407 1402 1396 1389 1383 1376 1371 1366 1361 1358 1352 1347 1349 1350 1344 1344 1347 1348 1345 1348
1477 1476 1474 1472 1471 1471 1470 1468 1466 1466 1465 1461 1457 1453 1450 1448 1444 1440 1436 1430 1425 1421 1416 1412 1407 1402 1396 1391 1384 1381 1378 1372 1367 1363 1360 1356 1357 1349 1352 1348 1352 1346 1349
1477 1475 1474 1474 1474 1474 1473 1470 1469 1468 1466 1463 1459 1456 1453 1451 1447 1443 1438 1432 1428 1424 1420 1416 1412 1407 1402 1397 1393 1389 1385 1382 1379 1376 1372 1367 1361 1359 1355 1353 1356 1353 1354
1477 1477 1477 1476 1476 1475 1474 1473 1472 1471 1468 1465 1462 1459 1457 1454 1450 1446 1441 1437 1432 1429 1425 1421 1416 1412 1406 1402 1398 1395 1391 1389 1385 1381 1377 1374 1371 1369 1365 1362 1362 1358 1356
1479 1479 1478 1478 1478 1478 1477 1476 1474 1472 1470 1467 1465 1462 1460 1456 1453 1449 1446 1442 1439 1436 1432 1428 1423 1418 1413 1411 1406 1400 1395 1393 1390 1387 1382 1378 1376 1375 1373 1369 1366 1366 1365
1479 1480 1480 1480 1480 1480 1480 1478 1476 1473 1472 1469 1466 1464 1461 1459 1456 1453 1451 1448 1445 1442 1438 1434 1430 1425 1422 1417 1411 1406 1403 1397 1393 1390 1385 1384 1383 1380 1378 1375 1373 1373 1374